• en France
  • Liste des pays
  • À 7 jours
  • Température de l'eau
  • Carte satellitaire
  • Carte météo
  • Widgets météo
  • user-avatar
    Se connecter

    Météo par heure à Côte de l'Or

    Ce jour, 23 Octobre, Mardi

    Heure Température Précipitation Vent Pression Humidité
    00:00 +19°C° 0 mm 2 m/s 758 mmHg 95%
    01:00 +18°C° 0 mm 2 m/s 758 mmHg 95%
    02:00 +18°C° 0 mm 2 m/s 758 mmHg 96%
    03:00 +18°C° 0 mm 2 m/s 758 mmHg 96%
    04:00 +19°C° 0 mm 2 m/s 757 mmHg 96%
    05:00 +19°C° 0 mm 2 m/s 758 mmHg 92%
    06:00 +20°C° 0 mm 2 m/s 758 mmHg 87%
    07:00 +21°C° 0 mm 2 m/s 758 mmHg 83%
    08:00 +25°C° 0 mm 2 m/s 758 mmHg 71%
    09:00 +28°C° 0 mm 2 m/s 758 mmHg 60%
    10:00 +31°C° 0 mm 1 m/s 758 mmHg 50%
    11:00 +31°C° 0 mm 2 m/s 758 mmHg 48%
    12:00 +32°C° 0 mm 2 m/s 758 mmHg 47%
    13:00 +33°C° 0 mm 3 m/s 757 mmHg 45%
    14:00 +31°C° 0 mm 3 m/s 757 mmHg 50%
    15:00 +30°C° 0 mm 3 m/s 757 mmHg 55%
    16:00 +29°C° 0 mm 3 m/s 756 mmHg 60%
    17:00 +27°C° 0 mm 3 m/s 757 mmHg 69%
    18:00 +25°C° 0 mm 3 m/s 757 mmHg 78%
    19:00 +22°C° 0 mm 3 m/s 757 mmHg 87%
    20:00 +21°C° 0 mm 2 m/s 758 mmHg 89%
    21:00 +21°C° 0 mm 2 m/s 758 mmHg 90%
    22:00 +20°C° 0 mm 2 m/s 758 mmHg 91%
    23:00 +20°C° 0 mm 2 m/s 758 mmHg 92%

    Demain, 24 Octobre, Mercredi

    Heure Température Précipitation Vent Pression Humidité
    00:00 +20°C° 0 mm 2 m/s 758 mmHg 93%
    01:00 +20°C° 0 mm 2 m/s 758 mmHg 94%
    02:00 +19°C° 0 mm 2 m/s 758 mmHg 94%
    03:00 +19°C° 0 mm 2 m/s 758 mmHg 94%
    04:00 +19°C° 0 mm 2 m/s 758 mmHg 94%
    05:00 +20°C° 0 mm 2 m/s 758 mmHg 87%
    06:00 +23°C° 0 mm 2 m/s 758 mmHg 81%
    07:00 +24°C° 0 mm 2 m/s 758 mmHg 74%
    08:00 +27°C° 0 mm 2 m/s 758 mmHg 63%
    09:00 +30°C° 0 mm 2 m/s 758 mmHg 52%
    10:00 +34°C° 0 mm 2 m/s 758 mmHg 41%
    11:00 +35°C° 0 mm 3 m/s 758 mmHg 38%
    12:00 +35°C° 0 mm 3 m/s 758 mmHg 35%
    13:00 +36°C° 0 mm 3 m/s 757 mmHg 33%
    14:00 +34°C° 0 mm 3 m/s 757 mmHg 41%
    15:00 +31°C° 0 mm 3 m/s 757 mmHg 49%
    16:00 +29°C° 0 mm 4 m/s 757 mmHg 58%
    17:00 +28°C° 0.1 mm 4 m/s 758 mmHg 66%
    18:00 +26°C° 0.1 mm 4 m/s 759 mmHg 75%
    19:00 +23°C° 0.1 mm 4 m/s 759 mmHg 83%
    20:00 +23°C° 0 mm 5 m/s 760 mmHg 85%
    21:00 +22°C° 0 mm 5 m/s 760 mmHg 86%
    22:00 +21°C° 0 mm 6 m/s 761 mmHg 88%
    23:00 +21°C° 0 mm 6 m/s 761 mmHg 87%

    Après-demain, 25 Octobre, Jeudi

    Heure Température Précipitation Vent Pression Humidité
    00:00 +21°C° 0 mm 6 m/s 761 mmHg 86%
    01:00 +21°C° 0 mm 6 m/s 760 mmHg 85%
    02:00 +20°C° 0 mm 5 m/s 760 mmHg 86%
    03:00 +20°C° 0 mm 5 m/s 760 mmHg 87%
    04:00 +20°C° 0 mm 4 m/s 760 mmHg 88%
    05:00 +20°C° 0 mm 4 m/s 760 mmHg 85%
    06:00 +21°C° 0 mm 4 m/s 761 mmHg 82%
    07:00 +21°C° 0 mm 4 m/s 761 mmHg 79%
    08:00 +23°C° 0 mm 4 m/s 761 mmHg 73%
    09:00 +25°C° 0 mm 4 m/s 761 mmHg 68%
    10:00 +27°C° 0 mm 4 m/s 761 mmHg 62%
    11:00 +28°C° 0 mm 4 m/s 761 mmHg 58%
    12:00 +29°C° 0 mm 4 m/s 760 mmHg 54%
    13:00 +31°C° 0 mm 3 m/s 759 mmHg 50%
    14:00 +30°C° 0 mm 3 m/s 759 mmHg 55%
    15:00 +29°C° 0 mm 3 m/s 759 mmHg 59%
    16:00 +28°C° 0 mm 3 m/s 758 mmHg 64%
    17:00 +26°C° 0.2 mm 3 m/s 758 mmHg 72%
    18:00 +24°C° 0.2 mm 3 m/s 758 mmHg 81%
    19:00 +21°C° 0.2 mm 3 m/s 759 mmHg 89%
    20:00 +21°C° 0.1 mm 2 m/s 759 mmHg 91%
    21:00 +21°C° 0.1 mm 2 m/s 759 mmHg 93%
    22:00 +20°C° 0.1 mm 2 m/s 759 mmHg 95%
    23:00 +20°C° 0.1 mm 2 m/s 758 mmHg 95%

    26 Octobre, Vendredi

    Heure Température Précipitation Vent Pression Humidité
    00:00 +21°C° 0.1 mm 3 m/s 758 mmHg 95%
    01:00 +21°C° 0.1 mm 3 m/s 758 mmHg 94%
    02:00 +21°C° 0.2 mm 3 m/s 757 mmHg 95%
    03:00 +20°C° 0.2 mm 3 m/s 757 mmHg 95%
    04:00 +20°C° 0.2 mm 4 m/s 757 mmHg 96%
    05:00 +21°C° 0 mm 4 m/s 757 mmHg 92%
    06:00 +22°C° 0 mm 4 m/s 757 mmHg 88%
    07:00 +23°C° 0 mm 4 m/s 757 mmHg 84%
    08:00 +27°C° 0 mm 4 m/s 757 mmHg 67%
    09:00 +30°C° 0 mm 4 m/s 757 mmHg 50%
    10:00 +34°C° 0 mm 4 m/s 756 mmHg 33%
    11:00 +34°C° 0 mm 4 m/s 755 mmHg 29%
    12:00 +35°C° 0 mm 4 m/s 755 mmHg 26%
    13:00 +36°C° 0 mm 4 m/s 754 mmHg 22%
    14:00 +35°C° 0 mm 4 m/s 754 mmHg 28%
    15:00 +34°C° 0 mm 5 m/s 754 mmHg 35%
    16:00 +32°C° 0 mm 5 m/s 754 mmHg 41%
    17:00 +29°C° 0 mm 5 m/s 755 mmHg 56%
    18:00 +26°C° 0 mm 5 m/s 756 mmHg 71%
    19:00 +22°C° 0 mm 4 m/s 756 mmHg 86%
    20:00 +22°C° 0 mm 4 m/s 757 mmHg 88%
    21:00 +21°C° 0 mm 3 m/s 757 mmHg 89%
    22:00 +21°C° 0 mm 3 m/s 758 mmHg 91%
    23:00 +20°C° 0 mm 3 m/s 757 mmHg 92%

    27 Octobre, Samedi

    Heure Température Précipitation Vent Pression Humidité
    00:00 +20°C° 0 mm 2 m/s 757 mmHg 93%
    01:00 +19°C° 0 mm 2 m/s 757 mmHg 93%
    02:00 +19°C° 0 mm 2 m/s 757 mmHg 94%
    03:00 +19°C° 0 mm 2 m/s 757 mmHg 94%
    04:00 +19°C° 0 mm 2 m/s 756 mmHg 94%
    05:00 +20°C° 0 mm 2 m/s 757 mmHg 89%
    06:00 +21°C° 0 mm 2 m/s 757 mmHg 84%
    07:00 +23°C° 0 mm 2 m/s 757 mmHg 78%
    08:00 +25°C° 0 mm 2 m/s 757 mmHg 68%
    09:00 +28°C° 0 mm 3 m/s 757 mmHg 58%
    10:00 +30°C° 0 mm 3 m/s 757 mmHg 49%
    11:00 +30°C° 0 mm 3 m/s 756 mmHg 49%
    12:00 +30°C° 0 mm 4 m/s 755 mmHg 49%
    13:00 +29°C° 0 mm 4 m/s 755 mmHg 49%
    14:00 +28°C° 0 mm 4 m/s 755 mmHg 54%
    15:00 +27°C° 0 mm 4 m/s 754 mmHg 60%
    16:00 +27°C° 0 mm 5 m/s 754 mmHg 65%
    17:00 +25°C° 0 mm 4 m/s 755 mmHg 71%
    18:00 +22°C° 0 mm 4 m/s 755 mmHg 77%
    19:00 +21°C° 0 mm 3 m/s 756 mmHg 84%
    20:00 +20°C° 0 mm 3 m/s 756 mmHg 86%
    21:00 +20°C° 0 mm 2 m/s 757 mmHg 88%
    22:00 +19°C° 0 mm 2 m/s 757 mmHg 91%
    23:00 +20°C° 0 mm 1 m/s 756 mmHg 91%

    28 Octobre, Dimanche

    Heure Température Précipitation Vent Pression Humidité
    00:00 +20°C° 0 mm 1 m/s 756 mmHg 92%
    01:00 +20°C° 0 mm 1 m/s 755 mmHg 93%
    02:00 +19°C° 0 mm 2 m/s 755 mmHg 93%
    03:00 +19°C° 0 mm 2 m/s 755 mmHg 94%
    04:00 +19°C° 0 mm 2 m/s 755 mmHg 94%
    05:00 +20°C° 0 mm 3 m/s 755 mmHg 90%
    06:00 +21°C° 0 mm 3 m/s 756 mmHg 85%
    07:00 +22°C° 0 mm 4 m/s 756 mmHg 81%
    08:00 +25°C° 0 mm 4 m/s 756 mmHg 69%
    09:00 +28°C° 0 mm 4 m/s 755 mmHg 58%
    10:00 +30°C° 0 mm 4 m/s 755 mmHg 46%
    11:00 +33°C° 0 mm 4 m/s 754 mmHg 41%
    12:00 +34°C° 0 mm 4 m/s 754 mmHg 35%
    13:00 +36°C° 0 mm 4 m/s 753 mmHg 30%
    14:00 +34°C° 0 mm 4 m/s 753 mmHg 38%
    15:00 +30°C° 0 mm 4 m/s 753 mmHg 46%
    16:00 +28°C° 0 mm 4 m/s 753 mmHg 55%
    17:00 +26°C° 0.1 mm 5 m/s 754 mmHg 61%
    18:00 +25°C° 0.1 mm 5 m/s 755 mmHg 68%
    19:00 +22°C° 0.1 mm 6 m/s 756 mmHg 75%
    20:00 +21°C° 0 mm 6 m/s 756 mmHg 79%
    21:00 +21°C° 0 mm 5 m/s 757 mmHg 82%
    22:00 +20°C° 0 mm 5 m/s 757 mmHg 85%
    23:00 +20°C° 0.2 mm 5 m/s 757 mmHg 87%

    29 Octobre, Lundi

    Heure Température Précipitation Vent Pression Humidité
    00:00 +20°C° 0.2 mm 5 m/s 757 mmHg 89%
    01:00 +20°C° 0.2 mm 6 m/s 757 mmHg 90%
    02:00 +20°C° 0.1 mm 5 m/s 757 mmHg 91%
    03:00 +19°C° 0.1 mm 5 m/s 757 mmHg 92%
    04:00 +19°C° 0.1 mm 5 m/s 757 mmHg 93%
    05:00 +20°C° 0.1 mm 5 m/s 758 mmHg 91%
    06:00 +20°C° 0.1 mm 5 m/s 758 mmHg 90%
    07:00 +20°C° 0.1 mm 5 m/s 759 mmHg 88%
    08:00 +20°C° 0.6 mm 5 m/s 759 mmHg 88%
    09:00 +20°C° 0.6 mm 5 m/s 759 mmHg 88%
    10:00 +20°C° 0.6 mm 5 m/s 759 mmHg 88%
    11:00 +20°C° 1.4 mm 5 m/s 759 mmHg 89%
    12:00 +19°C° 1.4 mm 5 m/s 759 mmHg 90%
    13:00 +19°C° 1.4 mm 5 m/s 759 mmHg 92%
    14:00 +19°C° 1.8 mm 5 m/s 759 mmHg 92%
    15:00 +19°C° 1.8 mm 5 m/s 759 mmHg 92%
    16:00 +19°C° 1.8 mm 5 m/s 759 mmHg 93%
    17:00 +17°C° 0.3 mm 5 m/s 760 mmHg 93%
    18:00 +17°C° 0.3 mm 5 m/s 760 mmHg 92%
    19:00 +17°C° 0.3 mm 5 m/s 761 mmHg 92%
    20:00 +18°C° 0.1 mm 4 m/s 761 mmHg 91%
    21:00 +18°C° 0.1 mm 4 m/s 761 mmHg 91%
    22:00 +18°C° 0.1 mm 4 m/s 761 mmHg 90%
    23:00 +18°C° 0.1 mm 4 m/s 761 mmHg 91%
    Voir plus